• In Czech Republic
  • List of Countries
  • For 7 days
  • Water Temperature
  • Satellite Maps
  • Weather Map
  • Weather Widgets
  • user-avatar
    Login

    Hourly Weather Adelaide

    Today, 22 August, Tuesday

    Time Temperature Precipitation Wind Pressure Humidity
    00:00 +10°C° 0 mm 3 mps 760 mmHg 91%
    01:00 +10°C° 0 mm 3 mps 760 mmHg 90%
    02:00 +10°C° 0 mm 3 mps 760 mmHg 90%
    03:00 +10°C° 0 mm 3 mps 760 mmHg 89%
    04:00 +10°C° 0 mm 3 mps 760 mmHg 88%
    05:00 +10°C° 0 mm 3 mps 761 mmHg 87%
    06:00 +10°C° 0 mm 3 mps 761 mmHg 85%
    07:00 +11°C° 0 mm 3 mps 761 mmHg 81%
    08:00 +12°C° 0 mm 3 mps 762 mmHg 76%
    09:00 +13°C° 0 mm 3 mps 762 mmHg 71%
    10:00 +14°C° 0 mm 3 mps 762 mmHg 68%
    11:00 +16°C° 0 mm 3 mps 762 mmHg 64%
    12:00 +15°C° 0 mm 4 mps 762 mmHg 61%
    13:00 +15°C° 0 mm 4 mps 761 mmHg 62%
    14:00 +15°C° 0 mm 4 mps 761 mmHg 62%
    15:00 +15°C° 0 mm 4 mps 761 mmHg 63%
    16:00 +14°C° 0.1 mm 4 mps 761 mmHg 69%
    17:00 +13°C° 0.1 mm 4 mps 761 mmHg 74%
    18:00 +12°C° 0.1 mm 3 mps 762 mmHg 80%
    19:00 +12°C° 0 mm 3 mps 762 mmHg 81%
    20:00 +11°C° 0 mm 3 mps 762 mmHg 82%
    21:00 +11°C° 0 mm 3 mps 763 mmHg 84%
    22:00 +11°C° 0 mm 3 mps 762 mmHg 85%
    23:00 +11°C° 0 mm 3 mps 762 mmHg 86%

    Tomorrow, 23 August, Wednesday

    Time Temperature Precipitation Wind Pressure Humidity
    00:00 +10°C° 0 mm 3 mps 762 mmHg 87%
    01:00 +10°C° 0 mm 4 mps 762 mmHg 88%
    02:00 +10°C° 0 mm 4 mps 762 mmHg 89%
    03:00 +10°C° 0 mm 4 mps 762 mmHg 91%
    04:00 +10°C° 0.1 mm 4 mps 762 mmHg 91%
    05:00 +10°C° 0.1 mm 4 mps 762 mmHg 91%
    06:00 +9°C° 0.1 mm 5 mps 762 mmHg 91%
    07:00 +10°C° 0.2 mm 5 mps 762 mmHg 88%
    08:00 +11°C° 0.2 mm 6 mps 762 mmHg 85%
    09:00 +13°C° 0.2 mm 6 mps 762 mmHg 83%
    10:00 +14°C° 0.4 mm 6 mps 762 mmHg 80%
    11:00 +14°C° 0.4 mm 7 mps 762 mmHg 77%
    12:00 +15°C° 0.4 mm 7 mps 762 mmHg 74%
    13:00 +15°C° 0.6 mm 7 mps 762 mmHg 75%
    14:00 +15°C° 0.6 mm 6 mps 762 mmHg 77%
    15:00 +14°C° 0.6 mm 6 mps 762 mmHg 79%
    16:00 +13°C° 0.1 mm 5 mps 762 mmHg 80%
    17:00 +12°C° 0.1 mm 5 mps 763 mmHg 82%
    18:00 +11°C° 0.1 mm 4 mps 763 mmHg 83%
    19:00 +10°C° 0 mm 4 mps 764 mmHg 83%
    20:00 +10°C° 0 mm 3 mps 764 mmHg 83%
    21:00 +9°C° 0 mm 3 mps 765 mmHg 83%
    22:00 +9°C° 0 mm 3 mps 765 mmHg 83%
    23:00 +9°C° 0 mm 3 mps 765 mmHg 83%

    Day after tomorrow, 24 August, Thursday

    Time Temperature Precipitation Wind Pressure Humidity
    00:00 +8°C° 0 mm 2 mps 765 mmHg 84%
    01:00 +8°C° 0 mm 2 mps 765 mmHg 84%
    02:00 +8°C° 0 mm 2 mps 765 mmHg 84%
    03:00 +8°C° 0 mm 2 mps 765 mmHg 84%
    04:00 +8°C° 0 mm 2 mps 765 mmHg 84%
    05:00 +8°C° 0 mm 3 mps 765 mmHg 85%
    06:00 +8°C° 0 mm 3 mps 766 mmHg 86%
    07:00 +10°C° 0 mm 3 mps 766 mmHg 81%
    08:00 +11°C° 0 mm 3 mps 766 mmHg 77%
    09:00 +12°C° 0 mm 3 mps 767 mmHg 72%
    10:00 +13°C° 0 mm 3 mps 767 mmHg 67%
    11:00 +14°C° 0 mm 3 mps 766 mmHg 62%
    12:00 +14°C° 0 mm 3 mps 766 mmHg 57%
    13:00 +14°C° 0 mm 3 mps 766 mmHg 59%
    14:00 +14°C° 0 mm 3 mps 766 mmHg 61%
    15:00 +13°C° 0 mm 3 mps 766 mmHg 62%
    16:00 +12°C° 0 mm 3 mps 766 mmHg 66%
    17:00 +13°C° 0 mm 2 mps 766 mmHg 71%
    18:00 +12°C° 0 mm 2 mps 767 mmHg 75%
    19:00 +10°C° 0 mm 2 mps 767 mmHg 77%
    20:00 +9°C° 0 mm 2 mps 767 mmHg 79%
    21:00 +10°C° 0 mm 1 mps 768 mmHg 82%
    22:00 +9°C° 0 mm 1 mps 768 mmHg 83%
    23:00 +9°C° 0 mm 1 mps 767 mmHg 84%

    25 August, Friday

    Time Temperature Precipitation Wind Pressure Humidity
    00:00 +9°C° 0 mm 1 mps 767 mmHg 86%
    01:00 +8°C° 0 mm 1 mps 767 mmHg 86%
    02:00 +8°C° 0 mm 1 mps 767 mmHg 87%
    03:00 +8°C° 0 mm 1 mps 767 mmHg 87%
    04:00 +8°C° 0 mm 1 mps 767 mmHg 87%
    05:00 +8°C° 0 mm 1 mps 767 mmHg 87%
    06:00 +8°C° 0 mm 1 mps 767 mmHg 87%
    07:00 +10°C° 0 mm 1 mps 768 mmHg 82%
    08:00 +11°C° 0 mm 1 mps 768 mmHg 78%
    09:00 +12°C° 0 mm 1 mps 768 mmHg 73%
    10:00 +13°C° 0 mm 1 mps 768 mmHg 69%
    11:00 +13°C° 0 mm 1 mps 768 mmHg 66%
    12:00 +14°C° 0 mm 1 mps 767 mmHg 62%
    13:00 +14°C° 0 mm 1 mps 767 mmHg 62%
    14:00 +14°C° 0 mm 1 mps 767 mmHg 61%
    15:00 +14°C° 0 mm 1 mps 766 mmHg 61%
    16:00 +13°C° 0 mm 1 mps 766 mmHg 64%
    17:00 +12°C° 0 mm 1 mps 767 mmHg 67%
    18:00 +11°C° 0 mm 1 mps 767 mmHg 70%
    19:00 +11°C° 0 mm 1 mps 767 mmHg 72%
    20:00 +10°C° 0 mm 1 mps 768 mmHg 75%
    21:00 +9°C° 0 mm 1 mps 768 mmHg 78%
    22:00 +9°C° 0 mm 1 mps 768 mmHg 79%
    23:00 +8°C° 0 mm 1 mps 768 mmHg 80%

    26 August, Saturday

    Time Temperature Precipitation Wind Pressure Humidity
    00:00 +8°C° 0 mm 1 mps 767 mmHg 82%
    01:00 +8°C° 0 mm 1 mps 767 mmHg 82%
    02:00 +8°C° 0 mm 1 mps 767 mmHg 83%
    03:00 +7°C° 0 mm 1 mps 767 mmHg 84%
    04:00 +7°C° 0 mm 1 mps 767 mmHg 84%
    05:00 +7°C° 0 mm 1 mps 767 mmHg 84%
    06:00 +7°C° 0 mm 1 mps 768 mmHg 85%
    07:00 +9°C° 0 mm 1 mps 768 mmHg 79%
    08:00 +11°C° 0 mm 1 mps 768 mmHg 73%
    09:00 +12°C° 0 mm 1 mps 769 mmHg 66%
    10:00 +14°C° 0 mm 1 mps 768 mmHg 61%
    11:00 +15°C° 0 mm 1 mps 768 mmHg 56%
    12:00 +16°C° 0 mm 1 mps 768 mmHg 51%
    13:00 +16°C° 0 mm 1 mps 767 mmHg 53%
    14:00 +15°C° 0 mm 2 mps 767 mmHg 54%
    15:00 +15°C° 0 mm 2 mps 767 mmHg 55%
    16:00 +14°C° 0 mm 2 mps 767 mmHg 61%
    17:00 +13°C° 0 mm 2 mps 768 mmHg 67%
    18:00 +10°C° 0 mm 2 mps 768 mmHg 72%
    19:00 +10°C° 0 mm 2 mps 768 mmHg 76%
    20:00 +9°C° 0 mm 2 mps 768 mmHg 80%
    21:00 +8°C° 0 mm 2 mps 769 mmHg 83%
    22:00 +8°C° 0 mm 2 mps 768 mmHg 83%
    23:00 +8°C° 0 mm 2 mps 768 mmHg 83%

    27 August, Sunday

    Time Temperature Precipitation Wind Pressure Humidity
    00:00 +8°C° 0 mm 1 mps 768 mmHg 84%
    01:00 +8°C° 0 mm 1 mps 768 mmHg 83%
    02:00 +8°C° 0 mm 1 mps 768 mmHg 83%
    03:00 +8°C° 0 mm 1 mps 768 mmHg 83%
    04:00 +8°C° 0 mm 1 mps 768 mmHg 83%
    05:00 +8°C° 0 mm 1 mps 769 mmHg 83%
    06:00 +8°C° 0 mm 1 mps 769 mmHg 83%
    07:00 +9°C° 0 mm 1 mps 769 mmHg 77%
    08:00 +11°C° 0 mm 1 mps 769 mmHg 70%
    09:00 +13°C° 0 mm 1 mps 769 mmHg 64%
    10:00 +14°C° 0 mm 1 mps 769 mmHg 61%
    11:00 +15°C° 0 mm 1 mps 769 mmHg 58%
    12:00 +16°C° 0 mm 1 mps 768 mmHg 55%
    13:00 +16°C° 0 mm 2 mps 768 mmHg 57%
    14:00 +16°C° 0 mm 2 mps 768 mmHg 60%
    15:00 +16°C° 0 mm 2 mps 767 mmHg 63%
    16:00 +13°C° 0 mm 3 mps 767 mmHg 69%
    17:00 +12°C° 0 mm 3 mps 767 mmHg 75%
    18:00 +11°C° 0 mm 3 mps 768 mmHg 81%
    19:00 +10°C° 0 mm 3 mps 768 mmHg 82%
    20:00 +10°C° 0 mm 2 mps 768 mmHg 83%
    21:00 +9°C° 0 mm 2 mps 768 mmHg 84%
    22:00 +9°C° 0 mm 2 mps 768 mmHg 85%
    23:00 +8°C° 0 mm 2 mps 767 mmHg 85%
    Show more